Location: Newark
(27.9675°N, 86.8869°E)
Time: 09:24:22
(UTC+00:00)

Altair - Pass Details

Date: 24 October 2019
Orbit: 1502 x 1682 km, 47.2° (Epoch: 11 November)

Event Time Altitude Azimuth Distance (km) Brightness Sun altitude
Rises 00:39:54 0° 177° (S) 4,621 10.3 3.9°
Reaches altitude 10° 00:44:32 10° 157° (SSE) 3,655 10.1 4.9°
Maximum altitude 00:49:31 16° 123° (ESE) 3,236 10.9 5.9°
Drops below altitude 10° 00:54:33 10° 90° (E) 3,713 11.3 7.0°
Sets 00:59:15 0° 70° (ENE) 4,733 11.0 8.0°
